Flag for Tuvalu Weather past 2 weeks in Funafuti, Tuvalu

Now
77 °F

Scattered showers. Mostly cloudy.


Feels Like: 78 °F
Forecast: 80 / 86 °F
Wind: 5 mph from East

Location: Funafuti

Current Time: Aug 31, 2014 at 7:14:45 PM

Latest Report: Aug 31, 2014 at 6:00 PM


Visibility: N/A

Pressure: 29.80 "Hg

Humidity: 94%

Dew point: 75 °F

Location of FunafutiLocation

Historic Weather in Funafuti — Graph

°F

Funafuti temperature yesterday

Maximum temperature yesterday: 84 °F (at 12:00 PM)
Minimum temperature yesterday: 79 °F (at 7:00 AM)
Average temperature yesterday: 82 °F

Past Weeks' High & Low Weather Summary

 TemperatureHumidityPressure
High90 °F (Aug 20, 12:00 PM)94% (Aug 19, 2:00 AM)29.95 "Hg (Aug 19, 2:00 AM)
Low75 °F (Aug 26, 2:00 PM)66% (Aug 18, 11:00 AM)29.71 "Hg (Aug 30, 3:00 PM)
Average83 °F82%29.83 "Hg
* Reported Aug 16 6:00 PM — Aug 31 6:00 PM, Funafuti, Weather by CustomWeather, © 2014

Note: Actual official high and low records may vary slightly from our data, if they occured in-between our weather recording intervals... More about our weather records

Advertising

Funafuti weather history for previous 24 hours

 ConditionsComfort  
Time TempWeatherWind HumidityBarometerVisibility
6:00 PM
Aug 31
77 °FScattered showers. Mostly cloudy.5 mph94%29.80 "HgN/A
5:00 PM77 °FSprinkles. More clouds than sun.No wind94%29.74 "HgN/A
4:00 PM77 °FSprinkles. More clouds than sun.12 mph94%29.74 "HgN/A
3:00 PM77 °FSprinkles. More clouds than sun.7 mph94%29.77 "HgN/A
2:00 PM77 °FRain showers. More clouds than sun.5 mph94%29.74 "HgN/A
1:00 PM79 °FRain showers. Mostly cloudy.8 mph89%29.77 "HgN/A
12:00 PM82 °FSprinkles. Broken clouds.6 mph89%29.77 "HgN/A
11:00 AM84 °FScattered showers. More clouds than sun.5 mph84%29.80 "HgN/A
9:00 AM81 °FMore clouds than sun.5 mph94%29.80 "HgN/A
8:00 AM84 °FScattered showers. Scattered clouds.9 mph79%29.80 "HgN/A
7:00 AM82 °FScattered showers. Scattered clouds.13 mph84%29.80 "HgN/A
6:00 AM82 °FPassing clouds.8 mph84%29.77 "HgN/A
5:00 AM82 °FPassing clouds.9 mph84%29.74 "HgN/A
4:00 AM82 °FPassing clouds.13 mph84%29.74 "HgN/A
3:00 AM82 °FPassing clouds.14 mph84%29.74 "HgN/A
2:00 AM82 °FPassing clouds.14 mph84%29.77 "HgN/A
1:00 AM82 °FPassing clouds.12 mph84%29.77 "HgN/A
12:00 AM82 °FPartly cloudy.14 mph84%29.77 "HgN/A
11:00 PM
Aug 30
82 °FPartly cloudy.13 mph84%29.80 "HgN/A
10:00 PM82 °FPartly cloudy.14 mph84%29.80 "HgN/A
9:00 PM81 °FPartly cloudy.12 mph89%29.80 "HgN/A
8:00 PM81 °FSprinkles. Partly cloudy.10 mph89%29.77 "HgN/A
7:00 PM81 °FScattered showers. Overcast.15 mph89%29.77 "HgN/A
Weather by CustomWeather, © 2014

See weather overviewHow to use our weather pages